User: anonymous   Login
Location: Unspecified
(0.0000°N, 0.0000°E)
Time: 09:07:47
(UTC+00:00)
Language:

GGSE 4 - Orbit

View from above orbital plane
View from above orbital plane
View from above satellite
View from above satellite

Ground track
Ground track

The orbit data is extracted from the following two-line orbital elements,

1 02828U 67053C   18020.88557826 -.00000032  00000-0  15157-4 0  9990
2 02828  69.9706 171.2057 0009363 216.7956 304.5547 13.97395959579840
Epoch (UTC): 20 January 2018 21:15:13
Eccentricity: 0.0009363
inclination: 69.9706°
perigee height: 896 km
apogee height: 909 km
right ascension of ascending node: 171.2057°
argument of perigee: 216.7956°
revolutions per day: 13.97395959
mean anomaly at epoch: 304.5547°
orbit number at epoch: 57984

The dashed part of the orbit path shows where the satellite is in the earth's shadow,  

DLR